EGUB

Details ICAO EGUB
Name RAF Benson
Region United Kingdom
Timezone Europe/London (UTC+1.0)
Plans Departing 11
Arriving 2
Stats Elevation 226 ft / 69 m (AMSL)
Location 51.615029° -1.095860°
Runways 1
Magnetic Variation 0.733° W
Sunrise 2018-05-27 03:58:29 UTC / 2018-05-27 04:58:29 Local
Sunset 2018-05-27 20:07:28 UTC / 2018-05-27 21:07:28 Local
Advertisement - Login to hide

Runways

ID Width Length Bearing (true) Bearing (mag) Surface Threshold Offset Overrun Length
01 151 ft / 46 m 5,974 ft / 1,821 m 7.81° 8.54° Asphalt 0 ft / 0 m 200 ft / 61 m
19 151 ft / 46 m 5,974 ft / 1,821 m 187.81° 188.54° Asphalt 0 ft / 0 m 200 ft / 61 m

Approach Navaids

Runway Type Ident Frequency Range Bearing (true) Bearing (mag) Slope Elevation
19 Localiser BO 108.50 MHz 18 nm / 33 km 187.81° 188.54° - 226 ft / 69 m (AMSL)
19 Glidescope BO 108.50 MHz 10 nm / 19 km 187.81° 188.54° 3.00° 226 ft / 69 m (AMSL)

Map

Weather


0- 5 10 15 20 25 30 35+ Temperature / ° C

Clouds and Precipitation
Forecast for 2018-05-27 12:00 UTC. Updated an hour ago

Ground ~20,000 ft ~40,000 ft Winds

METAR

EGUB 271150Z AUTO 34004KT 7000 // FEW016/// SCT019/// 21/17 Q1015

TAF

Not found

Frequencies

Ground 121.80 MHz Benson Ground
Approach 120.90 MHz Benson Zone
Tower 127.15 MHz Benson Tower
Approach 136.45 MHz Benson Approach
Warning: Do not use this data for real-world aviation or navigation. No guarantee of current accuracy is given.